This is the latest recevied weather packets stored in our database for station/object W4SNA-4. If no packets are shown the sender has not sent any weather packets the latest 10 day(s).
| Time | Temp. | Humidity | Pressure | Rain* | Wind** | Luminosity | Snow |
|---|---|---|---|---|---|---|---|
| 1777735768 | 11.11° C | 64% | 1009 hPa | 0 mm | - | - | - |
| 1777735468 | 11.11° C | 64% | 1008.9 hPa | 0 mm | - | - | - |
| 1777735169 | 11.11° C | 66% | 1008.9 hPa | 0 mm | - | - | - |
| 1777734869 | 11.11° C | 65% | 1008.9 hPa | 0 mm | - | - | - |
| 1777734569 | 11.11° C | 65% | 1008.7 hPa | 0 mm | - | - | - |
| 1777734269 | 11.11° C | 62% | 1008.7 hPa | 0 mm | - | - | - |
| 1777733970 | 11.11° C | 62% | 1008.7 hPa | 0 mm | - | - | - |
| 1777733669 | 11.11° C | 61% | 1008.2 hPa | 0 mm | - | - | - |
| 1777733369 | 11.11° C | 65% | 1008.2 hPa | 0 mm | - | - | - |
| 1777732991 | 11.11° C | 66% | 1008.2 hPa | 0 mm | - | - | - |
| 1777732689 | 11.11° C | 65% | 1008.2 hPa | 0 mm | - | - | - |
| 1777732390 | 11.67° C | 68% | 1008.2 hPa | 0 mm | - | - | - |
| 1777732090 | 11.67° C | 68% | 1008.2 hPa | 0 mm | - | - | - |
| 1777731789 | 11.67° C | 70% | 1008.2 hPa | 0 mm | - | - | - |
| 1777731490 | 11.67° C | 70% | 1008.2 hPa | 0 mm | - | - | - |
| 1777731190 | 11.67° C | 73% | 1008.2 hPa | 0 mm | - | - | - |
| 1777730590 | 11.67° C | 74% | 1008.3 hPa | 0 mm | - | - | - |
| 1777730290 | 11.67° C | 72% | 1008.3 hPa | 0 mm | - | - | - |
| 1777729989 | 11.67° C | 71% | 1008.3 hPa | 0 mm | - | - | - |
| 1777729690 | 11.67° C | 71% | 1008.3 hPa | 0 mm | - | - | - |
| 1777729390 | 11.67° C | 71% | 1008.3 hPa | 0 mm | - | - | - |
| 1777729089 | 11.67° C | 72% | 1007.9 hPa | 0 mm | - | - | - |
| 1777728790 | 11.67° C | 73% | 1007.9 hPa | 0 mm | - | - | - |
| 1777728490 | 11.67° C | 74% | 1007.9 hPa | 0 mm | - | - | - |
| 1777728189 | 11.11° C | 73% | 1007.9 hPa | 0 mm | - | - | - |
* Rain latest hour (hover to see other rain measurements)
** Current wind speed in m/s (hover to see current wind gust speed)